Home > Weather > San Francisco > Past weeks

Flag for USA Past Weather in San Francisco, California, USA — Yesterday and Last 2 Weeks

Now
56 °F

Passing clouds.


Feels Like: 53 °F
Forecast: 55 / 69 °F
Wind: 10 mph from Northwest

Location: San Francisco International Airport

Current Time: Jul 29, 2016 at 9:07:30 AM

Latest Report: Jul 29, 2016 at 7:56 AM


Visibility: 10 mi

Pressure: 29.88 "Hg

Humidity: 87%

Dew Point: 52 °F

Location of San FranciscoLocation

Past Weather in San Francisco — Graph

°F

San Francisco Temperature Yesterday

Maximum temperature yesterday: 68 °F (at 12:56 PM)
Minimum temperature yesterday: 54 °F (at 12:56 AM)
Average temperature yesterday: 59 °F

High & Low Weather Summary for the Past Weeks

 TemperatureHumidityPressure
High80 °F (Jul 26, 2:56 PM)90% (Jul 14, 8:56 PM)30.13 "Hg (Jul 14, 8:56 PM)
Low53 °F (Jul 26, 3:56 AM)38% (Jul 26, 2:56 PM)29.82 "Hg (Jul 26, 5:56 PM)
Average61 °F72%29.96 "Hg
* Reported Jul 14 7:56 AM — Jul 29 7:56 AM, San Francisco, Weather by CustomWeather, © 2016

Note: Actual official high and low records may vary slightly from our data, if they occured in-between our weather recording intervals... More about our weather records

Advertising

San Francisco Weather History for the Previous 24 Hours

Scroll right to see more
 ConditionsComfort  
Time TempWeatherWind HumidityBarometerVisibility
7:56 AM
Fri, Jul 29
56 °FPassing clouds.10 mph87%29.88 "Hg10 mi
6:56 AM54 °FPassing clouds.10 mph90%29.87 "Hg10 mi
5:56 AM54 °FPassing clouds.12 mph90%29.86 "Hg10 mi
4:56 AM54 °FPassing clouds.12 mph90%29.85 "Hg10 mi
3:56 AM54 °FPassing clouds.12 mph90%29.85 "Hg10 mi
2:56 AM54 °FPassing clouds.14 mph90%29.86 "Hg10 mi
1:56 AM54 °FPassing clouds.14 mph90%29.85 "Hg10 mi
12:56 AM55 °FPassing clouds.14 mph87%29.86 "Hg10 mi
11:56 PM
Thu, Jul 28
55 °FPassing clouds.12 mph90%29.87 "Hg10 mi
10:56 PM56 °FPassing clouds.16 mph84%29.88 "Hg10 mi
9:56 PM55 °FPassing clouds.17 mph87%29.88 "Hg10 mi
8:56 PM55 °FPassing clouds.20 mph87%29.85 "Hg10 mi
7:56 PM57 °FPassing clouds.21 mph81%29.84 "Hg10 mi
6:56 PM60 °FPassing clouds.22 mph75%29.83 "Hg10 mi
5:56 PM62 °FPassing clouds.22 mph70%29.84 "Hg10 mi
4:56 PM64 °FPassing clouds.23 mph63%29.84 "Hg10 mi
3:56 PM67 °FPassing clouds.21 mph59%29.86 "Hg10 mi
2:56 PM67 °FPassing clouds.20 mph59%29.88 "Hg10 mi
1:56 PM68 °FPassing clouds.17 mph57%29.89 "Hg10 mi
12:56 PM68 °FPassing clouds.14 mph59%29.91 "Hg10 mi
11:56 AM67 °FPassing clouds.14 mph59%29.92 "Hg10 mi
10:56 AM65 °FScattered clouds.6 mph68%29.92 "Hg10 mi
9:56 AM62 °FScattered clouds.12 mph70%29.93 "Hg10 mi
Weather by CustomWeather, © 2016

See weather overviewHow to use our weather pages